Regional Weather Roundup
Issued by NWS Portland, ME

Home | Current Version | Previous Version | Text Only | Print | Product List | Glossary On
Versions: 1 2 3 4 5 6 7 8 9 10 11 12 13 14 15 16 17 18 19 20 21 22 23 24 25 26 27 28 29 30 31 32 33 34 35 36 37 38 39 40 41 42 43 44 45 46 47 48 49 50
000
ASUS41 KGYX 271410
RWRGYX
WEATHER ROUNDUP FOR MAINE AND NEW HAMPSHIRE
NATIONAL WEATHER SERVICE GRAY ME
1000 AM EDT WED MAY 27 2015

MEZ002-005-006-010-012-015-018-020-021-024-026-027-029-271500-
MAINE

CITY           SKY/WX    TMP DP  RH WIND       PRES   REMARKS
PORTLAND       MOSUNNY   74  61  63 SE9       30.10F
SANFORD          N/A     81  63  54 S8        30.12
BAR HARBOR     CLOUDY    59  57  94 S7        30.13S
WISCASSET      SUNNY     72  61  68 S7        30.12F
ROCKLAND       PTSUNNY   68  59  73 W14       30.11S
FRYEBURG       MOSUNNY   84  65  52 VRB6      30.09F
LEWISTONAUBURN SUNNY     79  66  65 S9        30.09F
AUGUSTA        MOSUNNY   74  65  73 SE6       30.10S
WATERVILLE     MOSUNNY   72  63  73 S3        30.07S
BANGOR         CLOUDY    67  60  78 S9        30.09F
GREENVILLE       N/A     69  61  75 S3        30.08F
MILLINOCKET    CLOUDY    74  63  68 S7        30.08F
HOULTON        MOSUNNY   79  61  53 S7        30.03F
PRESQUE ISLE   MOSUNNY   79  61  53 S5        30.02F
FRENCHVILLE    PTSUNNY   70  62  76 S6        30.03F
CARIBOU        MOSUNNY   76  63  64 S7        30.02F
$$

NHZ002-005-008-009-011-012-014-271500-
NEW HAMPSHIRE

CITY           SKY/WX    TMP DP  RH WIND       PRES   REMARKS
PORTSMOUTH     PTSUNNY   79  65  61 SW9       30.10S
ROCHESTER      SUNNY     82  66  58 VRB3      30.11S
NASHUA         MOSUNNY   79  66  64 VRB6      30.13F
MANCHESTER     PTSUNNY   77  64  64 S10       30.11S
CONCORD        MOSUNNY   77  64  64 SE8       30.11F
LACONIA        SUNNY     79  63  57 SW9       30.08F
PLYMOUTH       FAIR      78  70  76 CALM      30.09F
BERLIN         SUNNY     80  65  59 SW10      30.08F
WHITEFIELD     LGT RAIN  81  65  58 VRB7      30.07F
JAFFREY        MOSUNNY   76  64  66 SW9       30.15F
KEENE          MOSUNNY  N/A N/A N/A S10       30.12F
LEBANON        SUNNY     78  65  63 VRB7      30.08F
MT WASHINGTON  FOG       54  54 100 W31         N/A  VSB 1/16
$$

VTZ005-007-008-271500-
VERMONT

CITY           SKY/WX    TMP DP  RH WIND       PRES   REMARKS
ST JOHNSBURY     N/A     78  65  63 MISG      30.04F
BURLINGTON     MOSUNNY   80  65  59 S14G22    30.02S
$$

MAZ007-012-024-CTZ003-RIZ002-NYZ038-NYZ072-271500-
SOUTHERN NEW ENGLAND AND NY

CITY           SKY/WX    TMP DP  RH WIND       PRES   REMARKS
BOSTON         PTSUNNY   75  63  66 S14       30.15F
WORCESTER      MOSUNNY   76  63  64 S12       30.18S
NANTUCKET      PTSUNNY   65  58  78 S17       30.26S
PROVIDENCE     PTSUNNY   72  62  71 S10       30.20F
HARTFORD       PTSUNNY   76  63  64 S14G21    30.14F
ALBANY         CLOUDY    77  65  66 S8        30.09F
NEW YORK CITY  PTSUNNY   75  64  68 S8        30.17S
$$

ANZ081-ANZ082-ANZ150-NHZ014-MEZ023>029-271500-
COASTAL MARINE OBSERVATIONS

STATION/POSITION TIME  TEMP    WIND        PRES    WAVE
                       AIR SEA DIR/SP/G            HT/PER
                 (UTC) (F)     (DEG/KT/KT) (MB)    (FT/S)
MOUNT DESERT ROC 1400   50     200/ 16/ 17   N/A
MATINICUS ROCK   1400   51     220/ 18/ 19   N/A
ISLE OF SHOALS   1400   63     180/ 20/ 21   N/A
JEFFREYS LEDGE   1303      48                N/A     3/ 5
CASHES LEDGE BUO 1350   55 50                N/A     4/ 6
GEORGES BANK BUO 1350   56 49  200/ 10/ 10   N/A     4/ 6
$$

.............KEY..............
   WCI - WIND CHILL
   TC  - TEMPERATURE IN CELSIUS
   VSB - VISIBILITY IN MILES
   HX  - HEAT INDEX
   FAIR- INDICATES FEW OR NO CLOUDS BELOW 12,000 FT, WITH NO
         SIGNIFICANT WEATHER AND/OR OBSTRUCTIONS TO VISIBILITY.




USA.gov is the U.S. government's official web portal to all federal, state and local government web resources and services.